Retour au catalogue

EWS-G2

ActifMétéoGEO
NORAD 36411·PAYLOAD·🇺🇸 United States

Lancé Mar 4, 2010 depuis Cape Canaveral Space Force Station

Loading…

TLE

FraisSource: Space-Track

Époque: Sep 14, 2026, 20:56 UTC

1 36411U 10008A   26257.87277385  .00000015  00000-0  00000-0 0  9999
2 36411   1.5196  81.8334 0005158  79.8976 209.6205  1.00271992 60530

Suivez EWS-G2 en temps réel avec AllMySat

Download on the App Store